This is the latest recevied weather packets stored in our database for station/object DG0LHZ-10. If no packets are shown the sender has not sent any weather packets the latest 10 day(s).
| Time | Temp. | Humidity | Pressure | Rain* | Wind** | Luminosity | Snow |
|---|---|---|---|---|---|---|---|
| 1778104184 | 17.22° C | 47% | 1009.2 hPa | - | - | - | - |
| 1778103284 | 17.78° C | 46% | 1009 hPa | - | - | - | - |
| 1778102384 | 17.78° C | 46% | 1008.8 hPa | - | - | - | - |
| 1778101484 | 17.78° C | 47% | 1008.8 hPa | - | - | - | - |
| 1778100584 | 18.33° C | 46% | 1008.7 hPa | - | - | - | - |
| 1778099684 | 18.33° C | 46% | 1008.8 hPa | - | - | - | - |
| 1778098784 | 18.89° C | 45% | 1009.1 hPa | - | - | - | - |
| 1778097884 | 19.44° C | 46% | 1008.7 hPa | - | - | - | - |
| 1778096984 | 19.44° C | 45% | 1008.8 hPa | - | - | - | - |
| 1778096084 | 20° C | 45% | 1008.7 hPa | - | - | - | - |
| 1778095184 | 20.56° C | 44% | 1008.7 hPa | - | - | - | - |
| 1778094283 | 20.56° C | 44% | 1008.6 hPa | - | - | - | - |
| 1778093383 | 21.11° C | 44% | 1008.1 hPa | - | - | - | - |
| 1778092483 | 21.67° C | 43% | 1007.9 hPa | - | - | - | - |
| 1778091583 | 22.22° C | 43% | 1007.5 hPa | - | - | - | - |
| 1778090683 | 22.78° C | 43% | 1007.5 hPa | - | - | - | - |
| 1778089783 | 23.33° C | 43% | 1007.3 hPa | - | - | - | - |
| 1778088883 | 23.89° C | 42% | 1007.1 hPa | - | - | - | - |
| 1778087983 | 25° C | 42% | 1007 hPa | - | - | - | - |
| 1778087083 | 25.56° C | 42% | 1007 hPa | - | - | - | - |
| 1778086183 | 25.56° C | 42% | 1006.8 hPa | - | - | - | - |
| 1778085283 | 26.11° C | 42% | 1006.8 hPa | - | - | - | - |
| 1778084383 | 26.67° C | 42% | 1006.9 hPa | - | - | - | - |
| 1778083483 | 26.67° C | 42% | 1006.8 hPa | - | - | - | - |
| 1778082583 | 26.11° C | 43% | 1006.9 hPa | - | - | - | - |
* Rain since midnight (hover to see other rain measurements)
** Current wind speed in m/s (hover to see current wind gust speed)